Wind_Speed
18 18 18 18 18 18 18 18 18 18 19 19 19 19 19 20 20 21 22 23 24 25 26 27 28 29 29 30 30 31 31 31 31 32 32 32 32 32 32 32 32 32
20 20 20 20 19 19 19 19 19 19 19 20 20 20 21 21 22 23 24 25 25 26 28 29 29 30 30 31 31 31 32 32 33 33 33 33 33 33 33 33 34 34
21 20 20 20 20 20 20 20 20 20 20 20 21 21 22 23 23 24 25 25 26 28 29 30 30 31 31 31 32 32 33 33 34 34 34 34 34 34 34 34 35 35
20 19 19 19 20 21 21 21 20 20 20 21 21 22 22 23 23 24 25 26 27 29 30 31 31 31 31 32 32 33 33 34 34 34 34 34 35 35 35 36 36 36
18 19 19 20 20 21 21 21 20 20 21 21 22 22 22 22 23 24 25 27 29 30 31 31 31 31 32 32 33 33 33 33 33 34 34 34 34 35 35 36 37 37
19 19 20 20 20 20 20 20 20 21 21 21 22 22 22 22 23 25 27 28 30 30 31 31 31 31 32 32 33 32 32 33 33 33 33 34 34 35 35 36 37 38
19 20 20 20 20 20 20 21 21 22 22 23 23 23 23 24 25 26 28 30 31 31 32 31 31 31 32 32 32 32 32 32 33 33 34 35 35 36 37 37 38 39
19 20 21 21 21 21 22 22 23 23 24 24 25 24 24 25 27 29 30 31 32 33 32 32 31 32 32 32 32 32 33 33 34 35 35 36 37 38 38 39 40 40
20 21 21 22 22 23 23 24 24 25 25 26 26 26 26 27 29 30 31 32 33 33 32 32 32 33 33 34 34 34 34 35 35 36 37 38 39 39 40 40 41 42
22 22 22 23 24 24 24 25 26 26 27 27 27 27 28 29 30 31 32 33 33 33 32 32 33 34 34 35 35 35 36 36 37 38 39 39 40 40 41 41 42 43
22 22 23 24 24 25 25 26 27 28 28 28 28 28 29 31 32 33 33 34 34 33 33 33 34 35 35 35 36 36 37 38 38 39 40 40 41 42 42 43 44 44
21 22 23 24 25 26 27 28 29 29 29 29 29 30 31 32 33 34 34 35 35 34 34 34 35 35 36 36 37 37 38 39 40 40 41 42 43 43 44 45 45 46
21 22 23 24 26 27 28 29 30 30 31 31 31 31 32 33 34 35 36 36 35 35 35 35 36 36 37 37 37 38 39 40 41 42 42 43 44 45 46 46 46 47
22 22 23 25 26 27 29 30 31 32 32 32 32 33 33 34 35 36 37 37 36 35 36 37 37 37 37 38 38 38 39 40 41 42 43 44 45 46 46 47 47 48
21 22 23 25 26 28 30 31 32 33 33 33 33 34 35 36 36 37 37 37 36 36 37 37 38 37 37 37 38 39 40 40 41 43 44 45 45 46 46 47 47 47
23 24 25 26 27 29 31 32 34 34 34 34 34 35 36 37 37 37 37 36 36 37 38 38 38 37 37 38 38 39 40 41 42 43 44 44 45 45 46 46 46 47
26 26 27 28 29 30 32 34 35 36 35 35 36 37 38 38 37 37 36 36 37 38 38 38 38 37 38 38 39 40 41 42 43 44 44 44 45 45 45 46 46 47
27 28 29 30 31 32 33 35 36 37 37 37 38 39 39 38 37 36 36 36 37 38 38 38 37 37 38 38 40 41 42 43 43 44 44 44 45 45 46 47 48 49
28 30 30 30 31 32 34 36 38 39 39 39 40 40 39 38 36 35 36 37 38 38 38 37 37 37 38 40 41 42 43 43 43 44 44 45 46 47 48 49 50 50
29 30 30 30 31 33 36 38 40 41 41 41 40 40 38 36 34 34 35 37 38 38 37 37 37 38 39 41 42 42 42 43 43 44 45 46 47 48 49 50 51 51
31 31 32 32 32 33 36 40 42 43 41 40 40 39 36 33 32 34 35 36 37 37 36 36 37 39 40 41 41 41 42 42 43 44 46 47 48 49 50 50 50 50
34 34 35 35 34 33 36 39 42 41 40 39 38 35 31 30 32 33 35 35 36 36 35 36 38 39 40 40 40 40 41 42 43 45 46 47 48 48 48 48 48 48
36 36 35 33 32 32 34 37 39 39 38 36 34 30 29 30 32 33 34 34 34 35 36 37 39 39 39 39 39 40 41 42 44 45 46 47 47 46 46 46 45 46
36 34 31 29 28 30 33 35 35 35 33 31 29 28 29 31 31 32 33 33 33 35 37 38 38 37 37 38 39 40 41 43 44 45 45 45 44 44 44 43 43 44
30 28 26 26 27 30 31 31 30 29 28 27 27 28 29 31 31 32 32 33 34 36 37 37 36 36 37 38 39 40 41 42 43 43 42 41 41 41 41 42 42 42
22 21 21 22 24 26 26 26 26 25 25 26 27 29 30 30 31 31 32 33 35 35 35 35 35 36 37 38 39 40 41 41 41 39 39 38 39 39 40 40 41 40
Wind_Direction
258 260 263 266 269 270 271 272 273 273 274 276 278 281 284 287 290 293 296 299 300 301 302 303 303 302 302 301 300 299 299 298 298 298 298 298 298 298 298 298 298 298
259 262 264 265 267 268 270 271 272 274 275 278 280 282 285 287 290 293 296 298 300 301 302 302 302 302 301 300 299 298 298 297 297 296 296 296 296 296 296 297 296 297
258 260 263 266 268 269 269 271 272 274 277 280 282 284 286 288 291 294 296 299 301 302 302 302 302 301 301 300 299 298 297 296 296 296 296 296 296 296 296 296 296 296
256 260 264 267 269 269 270 272 274 276 279 281 283 285 287 289 292 295 298 300 302 303 303 303 302 301 301 300 300 299 298 297 297 296 296 296 296 297 297 296 296 295
254 259 264 267 269 271 273 274 277 278 280 282 284 286 289 291 295 297 300 302 302 303 303 303 302 301 300 300 300 300 300 299 299 298 298 298 297 297 297 296 296 295
255 260 264 267 270 272 274 276 278 280 283 286 287 289 291 294 298 300 301 302 303 303 302 301 300 299 300 301 301 301 301 301 301 300 300 299 299 298 297 296 296 295
256 260 263 266 270 274 277 279 281 284 287 289 290 292 295 298 300 301 303 304 303 303 301 300 299 299 301 302 303 303 302 302 302 301 301 300 299 299 298 297 296 295
257 260 264 269 273 276 278 280 283 286 288 290 293 295 297 300 302 304 305 305 305 304 303 301 300 302 304 305 305 304 303 303 303 302 301 301 300 299 298 297 296 295
261 263 267 271 273 275 277 279 282 285 287 291 293 296 298 300 302 304 305 306 306 306 304 304 304 306 307 307 306 305 304 304 303 303 302 301 300 299 299 298 297 295
262 264 267 269 271 273 276 279 282 285 288 291 293 296 298 300 302 304 306 307 307 307 306 306 307 308 308 308 307 306 305 305 304 303 303 302 301 300 300 299 297 296
261 264 267 269 271 274 277 280 282 284 287 289 292 294 296 299 302 304 306 307 307 307 307 308 309 309 308 307 307 306 306 305 305 305 304 303 303 302 301 301 300 299
263 266 267 270 272 275 277 279 280 283 285 287 290 293 295 298 301 304 305 306 307 307 308 308 308 308 307 307 307 307 306 306 306 306 306 305 305 304 303 302 301 300
267 268 270 272 274 275 276 278 279 281 284 286 288 291 294 298 300 302 304 305 306 307 308 308 307 307 306 306 307 307 307 307 307 307 307 306 305 305 303 302 301 300
268 269 271 273 274 275 276 277 279 280 282 284 287 290 293 296 299 301 303 305 306 307 307 307 306 306 306 307 307 308 308 308 308 307 307 306 305 304 304 303 302 301
269 272 274 274 275 276 276 276 278 279 281 283 286 289 291 294 297 300 303 305 306 306 306 306 305 306 306 307 307 307 307 307 306 306 305 305 305 304 303 302 302 301
272 275 276 276 276 275 275 275 276 278 279 282 285 287 289 291 296 299 301 303 304 305 304 304 304 305 306 306 306 306 306 305 305 305 305 305 304 304 304 303 303 302
275 276 276 276 275 274 274 274 275 277 278 280 282 284 286 290 295 298 300 302 303 303 302 303 304 305 305 306 306 305 305 305 306 306 306 306 306 306 306 305 305 305
276 277 277 276 275 273 272 272 273 274 275 276 278 280 283 289 294 296 298 300 301 301 301 302 304 305 305 305 305 306 306 306 307 307 308 308 308 308 308 308 308 307
278 277 277 277 276 272 270 270 270 270 270 272 274 277 282 288 292 295 297 299 300 300 301 302 304 304 305 305 306 306 307 308 309 309 310 311 311 311 310 310 309 309
280 279 278 279 278 274 271 270 268 267 266 268 272 277 283 288 290 293 296 298 299 300 301 302 303 304 304 305 306 307 308 310 311 312 312 313 312 312 311 311 310 310
281 280 279 280 279 275 272 270 268 266 266 269 275 280 284 287 290 293 296 297 298 300 301 302 303 304 305 306 307 309 310 312 313 313 313 313 313 312 312 311 311 310
279 279 278 278 277 275 272 270 268 267 269 274 279 283 285 288 291 293 295 297 298 299 301 302 303 304 306 308 309 311 312 313 314 314 313 313 313 312 312 312 312 311
278 278 278 276 274 274 272 270 268 269 273 278 282 285 287 290 292 294 295 297 298 299 301 302 304 306 308 310 311 312 313 314 314 314 313 313 313 313 313 313 313 313
277 276 275 275 274 273 270 269 270 272 277 281 284 288 290 291 293 294 296 297 298 300 302 303 306 308 309 311 312 313 314 314 314 314 314 314 314 314 314 315 315 317
278 273 273 275 274 271 268 269 273 276 280 284 287 290 291 292 294 295 296 298 299 301 303 305 308 309 310 312 312 313 314 314 314 314 314 315 315 316 317 319 320 320
278 273 274 274 272 270 270 273 277 280 284 287 289 290 291 292 294 295 296 298 300 302 305 307 309 310 311 312 313 314 314 314 314 315 315 316 317 319 321 322 323 323
Height
5804 5805 5805 5806 5806 5806 5807 5807 5807 5807 5807 5807 5806 5806 5806 5805 5805 5804 5803 5802 5801 5800 5799 5798 5797 5796 5794 5793 5792 5791 5789 5788 5787 5785 5784 5782 5781 5779 5778 5776 5775 5773
5802 5802 5803 5803 5804 5804 5805 5805 5805 5805 5804 5804 5804 5804 5803 5802 5802 5801 5801 5800 5799 5798 5796 5795 5794 5792 5791 5790 5789 5787 5786 5785 5783 5782 5780 5779 5777 5775 5774 5772 5771 5769
5800 5800 5801 5801 5802 5803 5803 5803 5803 5803 5802 5802 5802 5801 5800 5800 5799 5799 5798 5797 5796 5794 5793 5792 5790 5789 5788 5786 5785 5784 5782 5781 5780 5778 5776 5775 5773 5771 5770 5768 5766 5765
5798 5798 5799 5800 5800 5801 5801 5801 5801 5801 5800 5800 5799 5799 5798 5797 5797 5796 5795 5794 5792 5791 5790 5788 5787 5786 5784 5783 5782 5780 5779 5777 5776 5774 5772 5771 5769 5767 5765 5764 5762 5761
5796 5796 5797 5798 5798 5799 5799 5799 5799 5798 5798 5798 5797 5796 5796 5795 5794 5793 5792 5791 5789 5788 5787 5785 5784 5782 5781 5780 5778 5777 5775 5773 5772 5770 5768 5767 5765 5763 5761 5760 5758 5756
5794 5795 5795 5796 5796 5797 5797 5797 5797 5796 5796 5795 5795 5794 5793 5792 5791 5790 5789 5788 5786 5785 5783 5782 5780 5779 5778 5776 5774 5773 5771 5769 5768 5766 5764 5763 5761 5759 5757 5756 5754 5752
5793 5793 5793 5794 5794 5794 5794 5794 5794 5794 5793 5793 5792 5791 5790 5789 5788 5787 5786 5784 5783 5782 5780 5779 5777 5776 5774 5772 5770 5769 5767 5765 5764 5762 5760 5759 5757 5755 5753 5751 5750 5748
5791 5791 5791 5792 5792 5792 5792 5791 5791 5791 5790 5790 5789 5788 5787 5786 5785 5784 5783 5781 5780 5778 5777 5775 5774 5772 5770 5768 5767 5765 5763 5762 5760 5758 5756 5754 5752 5750 5749 5747 5745 5743
5789 5789 5790 5790 5790 5790 5789 5789 5789 5788 5788 5787 5786 5785 5784 5783 5782 5781 5779 5778 5776 5775 5773 5771 5770 5768 5766 5765 5763 5761 5759 5758 5756 5754 5752 5750 5748 5746 5744 5742 5740 5738
5786 5787 5787 5787 5787 5787 5787 5786 5786 5785 5785 5784 5783 5782 5781 5780 5779 5778 5776 5774 5773 5771 5769 5768 5766 5764 5762 5761 5759 5757 5755 5753 5751 5750 5747 5745 5743 5741 5739 5737 5735 5733
5784 5784 5784 5784 5784 5784 5784 5783 5783 5782 5782 5781 5780 5779 5778 5777 5776 5774 5772 5771 5769 5767 5766 5764 5762 5760 5758 5757 5755 5753 5751 5749 5747 5745 5743 5741 5738 5736 5734 5732 5729 5727
5781 5781 5782 5782 5782 5781 5781 5780 5780 5779 5779 5778 5777 5776 5775 5774 5772 5771 5769 5767 5765 5764 5762 5760 5758 5756 5754 5752 5751 5748 5746 5744 5742 5740 5738 5736 5733 5731 5729 5726 5724 5722
5778 5779 5779 5779 5779 5778 5778 5777 5777 5776 5776 5775 5774 5773 5772 5770 5769 5767 5766 5764 5762 5760 5758 5756 5754 5752 5750 5748 5746 5744 5742 5739 5737 5735 5733 5730 5728 5726 5723 5721 5719 5716
5776 5776 5776 5776 5776 5776 5775 5774 5774 5773 5772 5771 5771 5770 5768 5767 5766 5764 5762 5760 5758 5756 5754 5752 5751 5748 5746 5744 5742 5739 5737 5735 5732 5730 5728 5725 5723 5720 5718 5715 5713 5710
5773 5773 5773 5773 5773 5772 5772 5771 5770 5769 5769 5768 5767 5766 5765 5764 5762 5760 5758 5756 5754 5753 5751 5749 5747 5745 5742 5740 5738 5735 5733 5731 5728 5726 5723 5721 5718 5715 5713 5710 5707 5705
5770 5770 5769 5769 5769 5768 5768 5767 5766 5766 5765 5764 5764 5763 5761 5760 5759 5757 5755 5753 5751 5749 5747 5745 5743 5741 5739 5736 5734 5732 5729 5727 5724 5721 5719 5716 5713 5710 5708 5705 5702 5699
5766 5766 5766 5765 5765 5765 5764 5763 5763 5762 5761 5761 5760 5759 5757 5756 5755 5753 5751 5749 5747 5746 5744 5742 5739 5737 5735 5732 5730 5728 5725 5722 5719 5717 5714 5711 5708 5705 5702 5699 5696 5693
5763 5762 5762 5762 5761 5761 5760 5759 5759 5758 5757 5757 5756 5754 5754 5752 5751 5749 5747 5746 5744 5742 5740 5738 5735 5733 5731 5728 5726 5723 5720 5717 5715 5712 5709 5706 5703 5700 5697 5693 5690 5687
5759 5759 5758 5757 5757 5757 5756 5755 5754 5754 5753 5752 5751 5751 5750 5749 5747 5746 5744 5742 5740 5738 5736 5734 5731 5729 5727 5724 5721 5719 5715 5713 5710 5707 5704 5700 5697 5694 5691 5688 5685 5681
5755 5754 5754 5753 5753 5752 5751 5751 5750 5749 5748 5748 5747 5747 5746 5745 5743 5742 5740 5738 5736 5735 5732 5730 5727 5725 5723 5720 5717 5714 5711 5708 5705 5702 5699 5695 5692 5689 5686 5683 5679 5676
5751 5751 5750 5749 5749 5748 5747 5746 5745 5745 5745 5744 5744 5744 5743 5741 5740 5738 5736 5734 5733 5731 5728 5726 5724 5721 5718 5716 5712 5709 5706 5703 5700 5697 5694 5691 5688 5684 5681 5677 5674 5670
5747 5746 5745 5745 5744 5744 5743 5742 5742 5742 5742 5742 5741 5740 5739 5738 5736 5734 5733 5731 5729 5727 5724 5722 5720 5717 5714 5711 5708 5705 5702 5699 5696 5693 5690 5687 5683 5680 5676 5673 5669 5665
5741 5741 5741 5740 5740 5739 5739 5739 5739 5739 5739 5738 5737 5736 5735 5734 5732 5731 5729 5727 5725 5723 5721 5718 5716 5713 5710 5707 5704 5701 5698 5695 5692 5689 5686 5682 5679 5676 5672 5669 5664 5661
5737 5736 5736 5736 5736 5736 5736 5736 5736 5736 5736 5735 5734 5733 5732 5730 5729 5727 5725 5723 5721 5719 5717 5714 5711 5709 5706 5703 5700 5697 5694 5691 5688 5685 5682 5678 5675 5671 5668 5665 5661 5656
5734 5733 5733 5733 5733 5733 5733 5734 5734 5733 5733 5732 5730 5729 5728 5726 5725 5724 5722 5720 5718 5715 5713 5710 5707 5705 5702 5700 5697 5694 5691 5688 5685 5681 5678 5675 5671 5668 5664 5661 5657 5653
5732 5732 5731 5731 5731 5731 5731 5731 5731 5730 5729 5728 5727 5726 5725 5723 5722 5720 5718 5716 5714 5712 5709 5706 5704 5701 5699 5696 5693 5690 5688 5685 5681 5678 5675 5672 5668 5665 5661 5657 5654 5650